If you wish to contribute or participate in the discussions about articles you are invited to join SKYbrary as a registered user

 Actions

Bacacheri Airport

From SKYbrary Wiki

SBBI
Airport
ICAO: SBBI – IATA: BFH
Summary
Name Bacacheri Airport
Region South America and Caribbean
Territory Brazil BR.gif
Location Bacacheri, Parana
Serving Curitiba
Elevation 3,057 m
10,029.528 ft
10,029.528 ft3,057 m
Coordinates 25° 24' 11.99" S, 49° 14' 1.00" W
Runways
Designator Length Width Surface ROPS
18/36 1390 m4,560.367 ft
30 m98.425 ft
ASP /


METAR
Observation SBBI 062000Z 07005KT 9999 FEW040 23/18 Q1012
Station Curitiba
Date/Time 06 December 2019 20:00:00
Wind direction 70°
Wind speed 05 kts
Lowest cloud amount few clouds
Temperature 23°C
Dew point 18°C
Humidity 73%
QNH 1012 hPa
Weather condition n/a

Bacacheri Airport is an airport in Curitiba, Brazil. It is named after the neighbourhood where it is located.

Climatology

Humid subtropical/oceanic climate (Köppen climate classification Cfb)

Maps

Terrain

Loading map...

Airport Layout

Loading map...


Accidents & Serious Incidents at or in vicinity of SBBI

None on SKYbrary